Location: *
(55.6049°S, 142.1985°W)
Time: 00:54:04
(UTC+00:00)

ATLAS 2AS CENTAUR R/B - Pass Details

Date: 12 May 2021
Orbit: 949 x 1263 km, 63.7° (Epoch: 07 May)

Event Time Altitude Azimuth Distance (km) Brightness Sun altitude
Exits shadow 16:05:06 12° 244° (WSW) 2,646 4.1 -9.6°
Maximum altitude 16:10:53 43° 174° (S) 1,417 3.3 -8.8°
Drops below altitude 10° 16:17:24 10° 103° (ESE) 2,926 6.0 -7.9°
Sets 16:20:19 0° 96° (E) 3,930 6.9 -7.6°
